Theta_e
314 316 320 321 320 321 323 325 323 321 321 316 316 318 318 321 320 320 319 319 320 321 320 318 320 322 323 323 323 322 323 326 326 324 329 335 337 339 338 337 338 338 337 336 335 333 334 335 334 335 335 335 334 334 334 334 333 333 334 333 334 334 334 334 332 331 329 325 321 321 320 320 319 319 318 316 314 312 311 311 308 308 310 309 320 326 325 325 326 323 313 305 307 307 308 308 308
314 317 320 321 319 322 325 324 322 319 317 315 316 319 319 320 320 320 319 321 323 322 320 319 320 323 322 322 322 321 326 328 327 330 332 333 336 338 336 335 335 337 338 336 336 335 336 335 334 334 333 333 333 334 334 333 334 334 333 333 333 334 334 333 332 331 328 324 322 321 320 319 317 317 317 316 314 311 312 310 308 315 318 316 324 327 325 326 328 327 314 305 308 307 308 308 308
315 319 320 321 321 323 325 323 320 316 315 314 315 319 319 319 320 320 321 323 323 321 320 320 321 323 321 322 322 321 327 329 328 331 332 334 338 337 336 334 335 337 338 337 337 337 337 334 333 333 330 330 331 334 333 332 333 334 333 333 333 333 333 333 332 330 327 324 322 322 321 319 316 316 317 316 313 311 311 308 311 321 322 322 328 328 326 328 330 328 314 305 308 307 308 308 307
316 320 321 323 325 324 324 323 320 316 314 313 316 319 319 320 320 321 323 322 321 320 321 321 322 323 322 324 323 320 327 330 330 331 333 336 338 337 337 335 335 338 338 338 337 337 336 334 333 331 328 328 329 331 330 329 332 333 333 333 333 333 333 332 332 330 327 324 322 322 322 319 317 318 318 317 313 310 310 308 315 323 323 326 329 328 326 327 326 319 309 307 308 307 307 307 307
318 321 320 324 328 324 323 322 320 318 315 315 317 318 319 320 320 322 322 320 319 320 321 321 324 323 321 323 323 324 328 329 328 331 336 337 338 337 336 335 336 338 338 338 338 337 336 333 333 331 328 326 327 328 327 326 330 331 331 331 333 332 332 332 332 330 326 324 323 323 322 319 319 320 320 319 314 310 309 307 315 323 326 328 328 327 326 326 322 314 315 315 309 307 307 306 306
321 322 320 323 326 323 323 320 318 318 317 319 318 318 319 319 320 322 321 320 319 319 319 320 323 321 322 323 323 325 328 328 329 333 337 336 335 335 335 335 336 337 338 339 338 337 336 333 333 330 326 325 325 326 325 325 327 328 328 329 331 330 330 331 331 329 326 324 323 324 323 321 320 321 320 320 316 310 308 305 312 322 327 328 327 327 327 326 323 321 322 316 308 307 306 306 306
322 323 322 322 323 323 323 319 317 318 318 319 319 318 318 319 321 321 321 320 319 319 318 320 321 320 323 322 321 322 323 328 331 331 333 333 333 334 335 336 336 337 337 339 338 337 337 333 332 330 325 325 325 325 325 323 325 326 326 327 328 329 329 329 329 328 326 325 324 325 325 322 321 321 320 320 317 311 308 305 307 317 324 327 327 327 327 326 325 323 318 309 306 307 306 306 306
321 323 323 323 323 322 322 319 319 320 319 319 319 319 319 320 320 320 320 320 319 319 318 319 320 320 321 320 324 324 319 323 327 326 327 331 332 333 335 337 338 336 337 339 338 337 336 333 333 331 327 326 327 326 325 324 325 325 325 327 327 328 329 329 329 328 327 326 324 325 325 323 322 321 320 320 319 313 308 305 304 309 316 321 324 324 324 324 321 316 309 306 306 306 305 306 305
320 323 323 323 323 321 320 319 319 319 319 318 318 319 319 320 320 320 320 320 319 319 320 320 320 320 319 319 324 324 319 318 319 321 325 329 332 333 334 336 339 336 337 338 338 337 336 334 333 332 329 328 329 329 328 326 325 324 325 327 327 327 328 329 328 327 327 326 324 324 325 324 322 322 321 320 320 314 309 305 304 305 308 314 319 319 317 316 313 308 306 306 306 305 306 305 305
321 322 323 323 322 319 318 318 319 320 319 319 319 318 319 319 320 320 319 320 319 319 321 320 319 319 318 320 322 322 321 317 317 319 323 326 330 333 333 335 338 337 337 337 338 338 336 335 333 333 331 330 331 331 331 328 327 325 324 325 326 327 328 329 328 327 327 325 324 325 325 324 323 322 321 321 321 316 309 306 304 304 304 306 309 310 309 308 307 306 306 306 305 305 305 305 305
322 321 322 322 319 317 316 317 319 320 319 318 319 318 319 319 319 320 319 319 318 319 321 319 319 319 319 320 322 322 318 315 317 318 320 323 326 332 334 336 338 337 337 337 338 338 337 336 335 334 332 331 332 333 332 331 329 327 326 325 326 328 329 330 328 328 327 325 325 325 324 324 323 322 322 321 321 318 312 308 305 304 304 304 304 305 305 305 305 305 305 305 305 304 305 306 305
323 321 321 320 318 318 318 318 318 320 319 318 318 318 318 319 318 319 319 318 318 318 319 319 319 320 319 320 322 319 315 316 318 317 317 319 324 331 335 337 338 337 337 337 337 338 338 337 335 334 333 332 332 333 334 333 331 330 328 327 327 328 329 330 328 328 327 324 326 327 324 324 323 323 322 321 322 320 315 311 309 307 306 305 305 305 304 305 305 305 305 305 306 307 308 309 309
323 323 321 320 321 320 319 318 319 320 319 319 319 318 317 318 318 318 318 318 318 317 319 320 319 319 318 321 321 317 315 316 316 315 316 317 321 329 334 337 337 338 337 337 337 337 337 337 336 335 334 333 332 333 334 334 332 331 329 328 327 327 329 329 327 327 326 325 327 327 325 323 323 323 323 322 322 322 318 313 312 311 310 309 307 307 307 306 307 307 308 308 309 310 312 313 313
323 324 322 321 322 320 319 319 319 318 318 319 319 318 318 318 318 318 317 317 318 318 319 318 318 319 318 319 320 319 318 315 314 315 315 316 317 323 331 335 336 338 337 337 337 337 337 337 336 336 335 334 334 334 335 334 333 332 330 329 327 326 328 328 327 327 326 326 327 327 326 324 323 323 323 322 322 323 321 316 314 315 314 312 311 311 310 310 310 310 311 312 312 314 314 315 316
321 323 322 322 321 319 319 320 320 317 318 319 317 317 318 317 317 317 317 317 318 318 318 317 317 318 317 318 320 321 319 314 314 314 314 316 315 319 326 332 335 336 336 337 336 336 337 336 336 337 337 336 335 336 336 335 334 333 332 330 328 325 327 328 328 328 325 326 327 327 326 325 324 323 323 322 322 323 323 320 316 317 317 315 314 314 313 313 313 314 314 315 315 316 317 317 318
319 322 322 320 319 318 319 320 320 318 319 319 316 317 317 316 316 316 317 316 317 317 316 317 316 317 317 318 320 321 318 314 314 314 315 316 316 318 324 330 333 333 333 335 335 335 336 336 337 338 338 337 336 336 336 336 335 334 333 332 329 325 326 328 328 328 326 325 326 327 327 326 325 324 323 323 323 323 324 323 319 318 318 317 317 316 316 316 317 316 317 317 317 318 318 318 319
318 322 321 318 318 319 319 319 319 318 319 318 316 317 317 317 315 315 316 315 316 317 316 317 316 316 316 316 316 316 316 315 314 314 315 315 317 318 323 329 332 331 331 332 333 334 334 334 336 337 337 337 337 337 336 336 336 335 334 333 331 327 326 328 328 327 327 327 326 326 326 327 326 325 324 323 323 323 324 324 322 319 319 319 318 319 319 319 318 318 318 318 318 318 319 319 319
318 321 318 317 319 320 320 319 319 319 319 318 316 317 317 317 316 315 315 315 316 317 316 316 316 315 315 315 315 315 315 315 315 315 315 315 317 317 320 324 329 331 330 331 330 330 332 333 335 336 336 337 337 337 337 336 336 336 336 335 333 330 328 329 329 328 329 329 328 327 327 328 327 326 325 324 324 324 324 325 324 322 320 320 320 320 320 320 320 319 319 319 319 319 319 319 319
319 321 318 319 321 320 320 320 319 319 319 318 317 317 317 317 317 316 315 316 317 317 317 317 316 316 315 315 315 315 315 315 315 315 314 315 316 316 317 318 324 328 327 328 328 327 330 332 334 335 335 336 337 337 337 337 337 336 336 336 334 333 331 330 330 331 330 330 329 328 329 330 329 328 326 324 324 324 325 325 325 324 322 320 320 320 320 321 321 320 320 319 319 319 320 320 320
319 320 319 320 321 319 319 319 318 318 318 319 318 317 317 317 317 316 316 317 318 317 317 318 318 317 316 316 315 315 315 315 315 315 315 314 315 315 316 316 318 322 324 325 327 326 327 330 332 333 333 334 335 335 336 336 336 336 336 336 335 335 334 332 332 332 331 330 330 330 330 330 330 329 327 325 326 325 325 325 325 325 324 322 320 321 321 321 321 321 320 319 319 319 320 320 320
319 317 318 319 319 319 318 317 317 316 317 318 318 316 317 317 316 317 316 317 318 318 318 318 318 318 318 317 316 315 315 315 314 315 315 314 315 314 316 317 317 320 321 323 325 325 326 328 329 330 333 333 334 334 335 335 334 335 335 335 335 335 334 334 333 332 332 331 331 330 330 330 330 330 328 326 326 325 325 326 326 325 324 323 321 321 322 322 322 321 320 320 320 319 320 320 320
317 316 317 318 317 318 317 316 315 315 316 317 318 316 316 317 316 317 317 317 317 318 318 318 318 318 319 317 316 316 315 315 315 315 315 315 315 315 317 316 318 324 323 320 322 323 324 328 329 329 331 332 333 334 335 334 333 335 335 334 334 334 334 334 334 333 333 332 332 331 330 330 330 329 329 327 326 326 326 326 326 325 325 324 323 322 323 323 322 321 321 320 320 320 320 320 321
317 317 317 316 317 318 316 315 315 314 316 317 318 317 317 317 316 317 317 317 318 318 318 317 317 317 317 317 316 316 315 315 315 315 315 315 315 316 319 318 319 324 322 318 318 318 322 325 327 329 329 328 330 331 333 333 333 335 334 333 333 333 333 333 334 334 333 333 332 332 331 331 330 329 329 328 326 326 326 326 326 326 325 325 324 324 324 323 323 322 322 321 322 322 321 321 321
317 317 317 316 316 316 315 314 314 314 316 317 316 316 317 317 317 317 316 317 317 317 317 317 316 316 316 315 316 316 315 315 315 315 315 315 314 316 321 325 324 320 316 317 317 316 318 318 320 323 322 323 326 328 329 330 332 333 333 332 331 331 333 333 333 334 333 333 333 333 332 331 331 330 330 328 327 326 326 326 326 326 325 325 325 325 324 324 324 323 323 323 323 323 322 322 322
317 318 316 315 316 315 314 313 313 314 315 315 315 316 317 317 316 316 316 317 317 317 317 316 316 316 316 315 315 315 315 315 315 315 315 314 315 316 319 325 325 318 313 315 315 315 315 315 317 318 318 321 326 328 327 328 331 331 331 330 327 327 331 332 332 332 332 332 332 332 332 331 331 330 330 329 328 327 326 326 326 326 326 325 325 325 325 324 324 324 324 323 323 323 322 322 322
318 317 316 316 316 315 314 314 314 314 315 314 315 317 317 315 314 316 316 317 317 317 316 316 316 315 316 315 315 315 315 315 315 315 315 314 314 315 316 317 318 315 314 315 314 314 314 315 316 317 318 321 326 329 328 327 329 330 330 329 326 327 332 334 333 331 331 331 331 331 332 331 331 331 331 330 329 328 327 326 326 327 326 326 326 326 325 325 325 324 323 323 323 323 322 321 322
317 317 317 317 316 315 315 315 315 314 315 314 315 317 317 315 314 316 318 317 317 316 316 316 316 316 316 315 315 315 315 315 315 315 315 315 314 314 315 314 315 314 314 314 314 314 314 314 314 315 317 318 322 325 324 325 327 328 329 329 328 329 334 336 335 333 331 329 329 330 331 331 331 332 331 331 330 329 328 327 327 327 327 327 326 326 326 325 324 324 323 323 323 323 322 322 322
317 317 317 317 317 316 315 316 316 315 315 314 316 317 317 316 314 316 318 317 317 316 316 316 316 316 316 316 316 315 316 315 315 315 314 315 315 315 314 315 315 314 314 314 314 314 314 314 314 314 315 315 317 318 320 322 323 324 326 328 328 328 331 335 336 334 332 329 328 330 331 331 331 331 331 331 330 331 329 328 327 327 327 327 326 326 326 325 324 324 323 323 323 323 322 322 322
317 317 318 317 317 317 317 317 316 316 316 315 316 316 317 317 316 317 318 317 317 316 317 317 316 316 316 316 316 316 316 315 315 315 315 315 315 315 315 315 315 314 314 314 314 314 314 313 313 314 314 314 315 315 317 317 318 318 320 325 327 325 326 332 334 333 332 331 329 330 331 330 331 332 331 330 330 330 330 329 328 328 329 328 326 326 326 325 325 324 323 323 322 323 322 322 321
317 317 318 317 317 317 318 318 316 316 316 315 316 315 316 319 318 319 318 317 317 316 317 318 317 317 317 316 316 316 316 316 316 316 315 315 315 315 315 314 314 314 314 314 314 314 313 313 313 313 313 314 314 315 315 315 316 316 316 321 324 323 321 325 331 333 332 332 329 329 330 329 330 331 331 330 329 329 330 330 329 329 329 328 327 326 326 325 324 324 323 322 322 322 321 321 319
318 317 317 318 317 317 318 318 317 317 316 315 316 314 316 319 320 319 318 317 317 317 318 318 318 318 318 317 317 317 316 316 316 316 316 316 315 315 315 314 314 314 314 314 314 313 313 313 313 313 313 313 314 314 314 314 314 314 316 318 320 321 318 318 327 332 332 330 327 325 327 327 328 329 331 331 329 328 328 329 330 329 329 328 327 326 326 325 324 323 322 321 321 321 320 320 318
318 316 316 318 316 316 318 317 317 317 315 315 316 315 317 319 319 318 317 317 316 316 318 318 318 318 318 318 317 317 317 317 317 317 316 316 316 316 316 315 314 314 314 314 314 313 313 313 313 313 313 313 313 314 314 313 313 313 313 315 314 315 315 315 320 325 326 324 321 321 323 325 326 328 330 330 329 329 328 329 329 329 328 327 327 326 325 324 324 323 322 320 320 319 319 319 318
317 315 316 318 316 315 317 315 316 316 315 316 316 316 318 319 319 318 317 316 316 316 318 318 319 319 318 318 317 317 317 317 317 317 317 317 317 316 316 316 315 315 314 314 314 314 313 313 313 313 312 312 312 313 313 313 312 312 311 312 312 312 312 313 314 318 319 319 321 322 324 326 327 329 330 330 330 330 329 329 328 327 328 327 326 325 324 324 324 323 321 320 319 318 318 319 318
317 316 316 318 317 315 315 315 315 316 315 316 316 316 317 317 318 318 318 317 316 317 318 318 319 318 319 318 318 318 318 318 318 318 317 317 317 317 316 316 316 315 315 314 314 314 313 313 313 313 312 312 312 312 313 313 312 312 312 312 313 312 312 312 312 314 316 319 322 324 327 328 328 330 330 329 329 329 330 328 327 327 328 328 326 325 324 324 323 322 321 319 317 317 318 319 318
316 316 314 315 316 314 314 316 316 315 315 316 317 317 317 317 318 318 318 318 317 318 318 318 318 318 318 318 318 318 317 318 318 318 318 318 317 317 317 316 316 315 315 315 314 314 314 313 313 313 312 311 312 312 312 312 312 312 312 313 312 312 313 312 312 312 316 322 325 327 330 331 330 329 328 326 325 327 329 327 325 326 328 327 326 325 325 324 323 321 321 319 317 317 318 319 317
316 317 315 315 315 314 315 316 315 315 315 316 316 316 316 317 318 318 318 318 318 319 318 318 318 318 318 318 318 318 317 316 317 318 318 319 318 317 317 316 317 316 315 315 315 315 314 314 314 313 313 312 311 312 312 312 312 312 312 313 313 313 313 313 312 313 317 324 327 328 330 331 331 329 327 327 324 325 328 326 324 326 327 327 326 325 325 324 323 322 321 319 317 317 317 317 316
314 316 315 315 315 315 316 316 314 314 315 315 316 316 317 317 317 318 318 318 318 318 319 319 318 318 318 318 318 317 317 316 316 317 317 318 319 318 318 317 317 316 316 315 315 315 314 314 314 314 313 312 312 311 312 312 312 312 313 313 313 313 313 313 313 313 316 321 325 326 328 329 330 329 329 327 323 325 328 326 324 326 327 327 326 326 325 324 322 321 321 319 318 319 318 316 315
315 315 315 315 316 315 317 316 314 314 314 315 316 316 316 317 317 317 318 317 317 318 318 319 318 319 318 318 318 318 317 317 316 316 317 317 318 318 318 318 318 317 316 316 315 315 315 314 314 314 313 313 312 311 311 312 312 312 313 313 313 313 313 313 313 313 315 318 321 322 323 326 328 329 328 324 324 327 328 325 324 327 328 327 325 324 323 322 321 320 320 318 318 319 317 315 314
315 316 316 316 317 317 316 315 314 313 314 315 315 316 316 317 316 317 318 317 317 317 318 319 319 319 319 319 319 319 319 318 318 316 316 316 317 317 317 318 317 317 317 316 316 315 315 315 314 314 314 313 312 311 311 311 312 312 312 313 313 313 313 313 313 313 316 319 320 320 320 322 324 324 325 325 326 327 327 326 325 327 327 326 324 323 321 321 320 320 319 319 318 318 316 314 314
316 316 316 315 318 317 314 314 314 314 314 314 315 315 316 316 316 317 318 318 318 318 318 318 319 319 319 319 319 319 319 319 319 318 318 317 316 317 317 317 317 317 317 316 316 316 315 315 315 315 315 314 313 312 311 311 311 312 312 313 312 312 313 313 313 314 316 320 321 321 322 322 322 324 326 327 327 326 327 327 325 325 325 324 324 323 321 320 320 320 320 320 320 318 316 313 313
317 317 316 315 317 316 314 315 315 315 314 314 315 315 316 318 318 318 319 320 319 319 319 319 319 318 317 317 317 317 318 318 318 318 318 318 316 316 316 316 317 316 316 316 316 316 316 316 315 315 314 314 313 312 311 311 311 311 312 312 312 312 313 314 314 314 317 320 322 323 324 323 324 327 326 325 326 327 326 325 324 323 323 323 324 323 322 321 320 319 320 321 320 319 318 315 314
315 318 318 316 315 316 316 317 316 314 314 315 316 314 314 318 319 319 319 320 319 319 320 320 320 319 318 318 317 316 317 317 316 317 317 317 316 316 316 316 316 315 316 316 316 315 316 315 315 315 314 314 313 313 312 311 311 311 311 312 312 312 313 313 314 314 317 320 323 324 324 324 326 326 324 324 326 326 325 324 323 322 323 324 324 323 322 320 319 319 319 320 319 318 318 316 314
314 317 318 316 316 317 317 318 316 313 314 316 315 313 313 316 316 317 318 318 318 318 319 319 320 320 320 320 319 319 319 318 316 316 316 316 315 315 316 316 316 316 315 315 315 315 314 314 314 314 314 314 313 313 313 311 311 310 311 311 312 312 312 313 314 315 318 321 324 324 323 325 325 323 323 324 325 325 325 324 322 322 323 324 323 323 321 320 319 319 319 320 319 317 316 315 313
316 317 316 316 317 318 318 318 316 315 317 316 315 316 315 315 316 316 317 316 317 317 318 319 320 320 321 321 321 320 319 317 316 316 315 315 315 315 315 316 316 315 315 314 314 314 313 313 313 313 313 313 313 313 313 311 310 310 311 311 311 312 312 313 314 316 319 322 324 324 323 323 322 322 323 324 325 325 324 323 322 321 322 323 322 322 321 320 320 320 320 319 318 317 316 314 310
317 316 316 317 318 318 319 317 316 317 318 316 316 318 316 315 316 317 318 316 317 317 318 319 319 321 322 321 319 318 317 317 316 316 316 315 315 316 316 316 316 315 314 314 314 313 313 312 312 312 312 312 312 313 312 311 310 310 310 311 311 312 312 313 315 317 320 323 325 325 323 321 322 323 324 324 325 324 323 322 322 321 322 322 322 322 321 320 320 319 319 318 317 316 314 312 308
316 315 316 317 317 317 318 317 316 316 316 315 318 318 314 313 315 317 318 317 317 318 318 319 320 323 322 318 317 317 317 318 317 317 317 317 317 317 317 317 317 316 315 315 314 314 313 312 312 311 311 311 312 312 312 311 310 310 310 310 311 311 312 313 314 317 320 323 324 324 322 322 323 325 324 323 324 323 323 323 322 322 322 322 322 321 320 320 319 318 318 318 317 313 311 310 306
316 317 317 317 317 317 317 316 316 315 315 316 318 318 313 312 315 317 318 318 318 318 317 319 321 323 320 316 317 318 317 318 318 318 318 318 318 318 318 318 317 317 316 316 315 315 314 313 312 311 311 311 312 312 311 310 310 309 310 310 310 311 312 313 315 318 321 323 323 323 322 323 324 324 323 323 323 322 322 322 322 322 322 321 321 320 320 319 318 318 318 317 314 309 308 307 304
317 318 316 316 316 317 316 316 317 314 315 316 317 318 315 313 314 317 318 318 318 319 318 317 318 322 321 317 317 317 317 318 318 318 318 317 318 318 318 317 317 317 317 316 315 315 314 313 313 312 311 311 311 312 311 310 310 309 310 310 310 311 312 314 316 318 320 321 321 322 322 323 323 323 323 322 321 321 321 321 321 321 321 320 320 319 318 318 317 317 316 313 309 306 307 305 302
317 316 315 314 314 315 316 317 318 316 315 315 316 318 317 315 315 316 318 317 317 318 319 318 318 321 322 320 318 317 316 317 317 318 318 318 317 317 317 317 317 317 317 316 315 315 314 314 313 312 312 311 312 313 311 310 309 309 310 310 311 312 312 313 316 317 318 320 321 321 321 321 321 322 323 322 321 320 320 321 320 319 319 319 318 318 317 317 317 315 312 309 305 305 305 303 302
315 315 315 314 313 314 316 317 317 316 316 314 314 316 316 315 315 317 317 317 318 318 318 320 319 318 320 320 319 317 316 316 316 317 318 318 318 317 317 317 317 316 317 316 315 314 313 313 313 313 312 312 313 313 311 310 309 309 309 309 310 312 311 313 316 317 319 320 320 320 320 319 319 320 322 322 321 321 320 320 319 319 318 317 316 316 316 315 313 310 308 306 303 304 303 302 301
315 316 316 315 314 314 315 315 315 315 315 313 313 316 315 315 316 317 317 317 318 319 318 319 319 317 318 318 317 317 317 316 315 316 317 317 317 317 317 317 317 317 316 316 315 315 314 313 313 313 313 312 313 313 311 310 309 309 309 309 310 311 311 314 316 316 318 319 318 319 319 319 320 321 322 321 320 320 320 319 318 318 317 316 316 315 315 312 308 305 304 303 302 302 302 301 300
315 317 317 317 316 314 313 314 314 314 314 313 314 315 315 315 316 316 317 317 317 318 318 318 318 318 317 317 317 317 317 316 315 315 316 316 317 317 317 317 317 317 316 316 316 315 314 314 313 313 313 313 313 313 312 310 309 309 309 309 309 309 311 313 315 315 316 317 317 319 319 320 320 320 320 320 320 319 318 318 317 317 317 316 315 314 311 306 303 302 301 301 300 300 301 300 298
316 317 318 317 316 315 314 314 313 312 313 314 314 315 315 314 316 317 316 316 317 318 318 318 318 317 318 318 317 317 318 317 316 316 316 316 316 317 317 317 317 317 316 316 316 315 314 314 313 313 313 312 312 313 312 310 309 309 309 309 308 308 310 313 315 315 315 315 316 318 319 319 319 319 319 320 319 318 317 317 316 316 316 315 315 312 306 302 300 300 299 299 299 299 300 298 296
316 316 316 316 315 315 314 314 314 314 315 315 314 314 314 313 315 318 317 316 316 317 317 318 318 318 319 318 317 318 319 317 316 317 317 316 317 317 317 317 317 316 316 316 316 316 315 315 314 314 313 313 312 312 311 310 309 309 309 309 308 308 310 313 314 314 313 314 317 318 318 318 318 319 319 319 318 317 317 316 316 316 315 315 314 309 302 299 299 298 298 298 298 298 298 296 294
315 316 316 315 315 315 314 314 314 315 316 316 315 314 314 313 314 316 317 316 316 317 317 317 318 319 319 318 318 319 318 317 316 316 316 317 317 317 317 317 317 317 317 317 317 317 316 316 315 315 315 313 313 312 312 310 310 309 309 308 308 308 310 312 311 311 313 316 318 318 317 317 317 318 318 318 317 316 315 315 315 315 315 314 311 304 299 298 298 297 296 297 297 297 295 294 293
313 314 315 315 316 315 314 315 314 314 315 315 315 315 314 315 315 315 316 316 316 317 318 318 318 319 319 319 319 319 318 317 316 316 317 317 317 317 317 317 317 317 317 317 317 317 317 317 316 316 315 314 314 313 312 311 310 310 309 308 308 309 310 310 310 311 314 317 317 317 317 316 317 317 317 317 316 315 314 314 314 314 314 312 307 300 298 298 297 296 296 296 296 295 293 293 293
313 313 314 315 315 315 315 316 315 314 315 314 315 315 314 315 316 317 317 317 317 318 318 319 320 320 320 320 319 318 318 317 316 316 317 317 317 317 317 317 317 317 317 317 317 317 317 317 317 316 316 315 314 313 313 312 310 310 309 308 308 309 309 309 310 311 314 316 316 316 316 316 316 316 316 316 315 314 314 313 313 314 313 309 302 298 297 297 296 295 295 294 294 293 293 293 292
314 313 314 315 315 315 315 317 316 314 315 315 315 316 315 316 318 317 317 318 319 320 320 321 321 321 320 319 318 317 317 316 316 316 317 317 317 317 317 317 317 317 317 316 316 316 317 317 317 316 316 315 314 313 313 312 310 309 309 309 308 309 309 309 310 312 314 314 315 316 316 316 315 315 316 315 314 314 313 313 313 312 311 306 300 297 297 296 295 295 294 293 293 293 293 292 292
Wind_Speed
5 6 7 6 6 5 3 4 4 2 2 2 3 2 4 4 2 4 6 4 3 4 4 2 1 1 1 4 7 6 7 8 6 4 2 6 13 14 12 13 13 12 11 10 10 10 10 10 11 10 9 9 10 10 9 10 10 9 9 10 9 9 9 9 10 11 12 12 13 12 13 13 12 11 11 11 11 10 9 9 10 11 12 12 13 14 16 16 15 13 13 15 16 17 18 19 20
6 7 7 6 6 4 2 5 3 2 2 3 3 2 6 5 3 4 5 4 4 5 3 3 1 2 1 5 6 5 5 8 7 8 7 10 13 14 15 15 14 13 11 10 10 10 10 10 10 10 10 10 10 10 10 10 10 9 9 9 8 8 8 8 9 10 10 11 11 11 12 12 12 12 12 12 11 10 9 9 10 12 13 14 14 15 17 16 15 15 14 16 17 18 18 19 21
7 8 8 5 4 5 4 4 3 0 1 3 4 4 5 5 4 5 7 7 8 7 5 4 3 2 4 5 4 4 4 7 7 10 11 12 10 11 15 16 15 12 11 10 10 10 9 9 10 9 10 10 10 10 10 10 10 10 9 8 8 8 7 7 8 8 9 10 10 10 11 12 12 12 12 12 11 10 9 10 10 12 14 14 15 16 17 15 15 14 14 16 18 18 19 20 21
9 10 9 3 4 6 5 3 2 2 1 3 4 5 5 4 6 8 9 9 9 7 5 4 3 2 5 4 5 4 3 6 7 9 12 13 10 11 16 17 15 12 11 11 11 10 10 10 9 8 9 9 9 9 9 10 10 9 9 8 7 7 6 6 7 7 7 9 9 9 11 12 12 12 12 12 11 10 9 9 11 13 14 15 15 16 16 15 14 13 14 16 17 18 19 20 21
10 10 9 4 5 2 2 2 1 2 3 3 2 6 5 4 8 9 10 9 8 6 3 3 1 1 5 4 5 3 4 4 8 12 11 12 12 11 16 18 15 13 11 11 10 9 10 10 9 8 8 9 9 8 9 9 9 8 8 8 8 6 6 6 6 5 6 8 8 9 10 12 12 12 12 12 12 10 9 9 11 14 15 16 16 16 15 14 13 14 15 15 17 18 19 20 21
9 6 5 4 4 2 3 2 1 2 5 4 3 6 5 6 8 10 11 9 7 4 3 3 1 0 4 3 3 2 2 4 9 13 10 12 16 13 17 19 14 12 12 11 10 10 9 10 10 9 9 9 9 9 9 9 9 8 8 8 8 6 5 5 5 5 6 7 7 8 9 11 11 11 12 12 12 10 9 8 10 13 15 17 17 15 15 14 14 14 14 15 17 19 20 20 21
8 4 4 4 3 3 4 0 2 3 4 4 4 5 6 7 9 12 11 8 6 3 3 3 2 3 2 2 3 3 6 7 8 13 11 14 18 16 18 17 13 13 13 12 11 11 11 11 11 11 11 10 10 10 9 10 10 9 8 9 8 7 5 5 4 4 5 7 7 7 8 9 10 11 11 11 12 11 10 9 9 11 14 17 16 15 14 14 13 13 14 16 18 19 20 20 21
9 4 4 4 3 2 3 1 2 3 4 2 3 4 6 9 10 10 9 6 5 5 6 4 3 5 1 3 2 3 8 9 10 15 13 13 17 18 18 14 12 13 13 12 11 11 12 12 11 11 11 11 10 9 8 9 9 9 9 8 8 7 6 5 4 4 5 6 6 6 7 8 9 10 11 11 11 11 11 10 9 9 11 14 15 14 13 13 13 13 15 17 18 19 20 21 21
6 3 5 4 2 2 1 1 2 3 4 4 4 4 6 8 9 8 7 5 4 5 5 5 5 3 2 4 2 4 7 8 9 13 14 14 17 18 18 14 11 13 14 12 12 12 13 12 11 11 11 10 9 8 8 7 7 8 8 8 8 7 6 5 4 4 4 4 5 5 6 7 8 10 10 11 11 11 11 10 10 10 11 12 13 14 14 14 14 15 16 17 18 19 20 20 21
6 5 4 3 2 2 2 1 2 3 4 4 4 6 6 8 7 6 7 5 5 5 5 4 5 3 1 3 4 5 7 8 9 11 14 15 17 17 18 16 11 12 13 12 12 13 13 12 12 11 11 10 9 8 8 8 7 7 7 8 8 7 6 5 5 4 3 3 4 4 5 5 7 9 10 11 11 11 11 11 11 11 12 13 14 14 14 15 16 16 16 17 18 18 19 20 21
6 5 3 4 3 2 1 2 3 3 5 4 5 7 8 9 8 6 5 4 5 4 4 4 5 4 4 2 4 5 8 10 10 12 15 15 16 17 17 14 11 12 12 13 13 12 13 13 12 12 11 11 10 9 8 8 8 7 7 8 8 7 7 6 5 4 3 2 2 3 4 5 6 8 9 10 11 11 11 11 11 12 12 13 14 15 15 15 15 16 16 17 17 18 19 20 21
5 5 4 4 3 1 1 2 3 4 4 5 6 9 9 10 8 7 7 4 6 5 5 6 3 2 6 3 3 6 9 11 12 14 15 14 15 16 16 13 12 12 12 13 14 13 12 12 13 12 12 11 11 11 9 9 9 7 7 8 8 8 7 7 6 5 3 2 2 3 4 4 5 7 8 9 10 10 11 11 12 12 12 13 14 15 15 15 15 15 16 17 17 18 19 20 21
5 4 5 3 1 1 1 1 2 3 3 5 6 10 10 11 9 7 7 5 6 6 6 8 3 2 5 3 4 7 10 13 14 14 14 14 15 17 18 17 15 13 13 14 14 15 13 12 13 13 12 12 11 11 9 9 9 8 7 8 8 8 8 7 6 5 4 3 3 2 3 3 4 5 7 8 9 9 9 10 11 12 12 13 14 15 15 15 15 15 16 16 17 18 19 21 21
4 2 5 2 0 2 1 1 1 2 3 6 8 12 11 9 8 6 6 7 6 4 5 8 6 3 4 3 5 8 12 15 15 14 14 16 17 18 19 20 19 16 17 17 17 17 15 14 14 13 13 12 11 10 9 9 10 9 8 8 8 8 8 8 7 6 5 4 4 3 2 1 2 4 5 6 7 7 7 8 10 11 12 12 13 14 15 15 15 15 15 16 17 18 20 20 21
3 2 4 2 2 3 2 1 0 3 2 9 9 13 12 7 6 5 5 4 4 5 5 6 9 4 2 1 6 10 14 15 14 15 15 16 17 19 20 21 21 19 20 20 19 18 17 16 14 13 13 12 11 10 10 10 10 10 9 8 8 9 8 8 8 7 6 5 4 3 2 1 1 2 3 5 5 5 6 6 8 9 10 11 12 13 14 14 14 15 15 16 17 18 19 20 20
4 2 4 3 3 3 3 3 1 3 3 10 9 12 11 7 7 6 6 4 2 6 7 4 9 7 3 3 7 9 13 15 15 16 16 16 17 19 20 20 22 22 22 21 21 20 19 18 16 15 13 13 13 12 11 11 11 11 10 10 10 10 10 9 8 8 7 6 5 4 3 2 2 2 2 3 4 4 4 5 6 8 9 10 11 12 12 13 14 14 14 15 16 17 18 18 18
5 4 5 4 4 3 4 5 3 1 4 9 10 13 10 7 8 7 8 8 3 4 7 5 9 10 6 3 5 7 10 15 17 16 17 17 17 20 21 21 22 23 23 22 23 23 21 20 19 18 16 15 14 13 12 12 12 12 11 12 12 12 11 10 9 9 8 7 6 5 4 4 3 3 2 3 4 4 4 4 5 7 8 8 10 10 11 12 13 13 14 14 15 15 16 16 16
5 4 5 5 4 2 2 4 2 1 2 8 11 12 10 6 9 8 6 8 8 5 7 9 10 11 12 10 7 5 8 14 17 18 19 18 19 20 22 23 23 21 23 25 24 24 23 21 20 20 19 18 16 15 14 13 13 13 13 13 13 13 12 11 10 10 9 8 7 6 5 4 5 5 4 4 4 4 4 4 4 5 6 7 8 9 10 11 12 12 13 13 13 13 13 14 15
4 3 5 4 1 3 3 1 2 3 2 6 10 11 9 4 7 9 6 8 10 9 9 10 11 11 14 15 12 9 8 12 16 18 19 19 20 21 22 24 24 20 23 27 26 24 24 23 22 21 20 20 19 18 16 15 14 14 15 14 13 13 13 12 12 12 11 10 9 8 7 6 6 7 6 5 4 4 5 4 4 4 5 5 6 8 9 10 10 11 12 12 12 12 11 12 13
3 3 5 1 3 5 5 3 5 5 3 3 8 9 7 3 5 8 7 8 8 10 10 10 12 13 15 17 16 14 10 11 13 16 19 20 21 21 21 23 25 23 23 27 27 26 26 25 25 24 22 21 21 20 19 18 16 14 14 14 14 14 14 14 13 13 13 12 11 10 8 8 8 8 7 6 6 6 6 6 5 5 6 6 5 6 8 8 9 10 10 10 10 10 10 11 11
2 3 3 3 3 1 4 4 5 5 2 3 6 8 8 5 5 7 7 7 7 10 12 11 11 10 15 17 15 17 15 13 13 14 18 20 22 22 22 22 22 22 22 25 28 27 27 27 27 26 23 22 21 20 20 20 19 16 14 13 14 15 15 15 15 14 14 13 13 12 11 10 11 10 9 8 9 8 7 8 8 7 7 7 6 6 7 7 8 9 9 9 9 8 8 9 9
2 2 2 5 3 1 4 2 3 5 3 4 6 6 7 6 6 9 10 9 5 3 5 9 8 4 9 13 12 14 17 17 16 15 16 19 22 23 22 23 20 19 20 22 25 26 27 27 28 27 24 22 22 22 21 21 21 20 17 15 14 15 16 16 16 15 15 15 14 14 14 13 13 12 11 10 10 9 7 8 9 9 8 8 8 7 7 7 8 9 10 9 8 7 6 7 7
3 2 3 4 4 3 3 1 3 3 2 4 5 4 4 5 7 9 12 15 8 4 3 6 7 6 7 11 12 13 15 17 17 16 16 17 20 22 23 23 21 21 23 22 22 23 24 27 27 27 25 24 24 23 21 23 23 23 21 19 17 16 17 18 18 17 16 15 16 16 16 15 16 14 13 13 12 10 9 9 9 10 10 10 10 10 9 9 9 9 10 10 8 6 5 5 5
4 1 5 3 4 3 3 1 4 2 0 1 1 2 4 7 6 5 12 19 14 12 13 10 9 9 9 11 12 12 14 16 16 16 15 16 18 20 22 21 22 24 25 23 22 23 24 25 25 26 25 23 24 24 23 24 24 25 24 22 20 20 19 18 19 19 18 17 17 18 18 16 17 16 15 15 13 12 12 11 9 10 11 12 12 12 11 11 10 10 10 10 8 6 5 4 4
4 1 6 3 3 3 3 2 3 3 2 2 2 5 5 5 4 5 15 19 14 16 20 19 16 14 13 12 13 12 13 15 16 16 16 17 18 20 22 22 24 26 25 23 24 25 24 24 24 25 25 23 23 23 22 22 21 21 23 24 23 22 22 21 19 19 20 19 18 19 19 18 18 17 16 16 14 14 15 13 11 12 13 14 15 15 14 13 12 12 12 10 9 7 6 3 2
1 4 6 4 5 4 4 4 3 2 2 2 4 6 4 2 4 9 19 20 14 16 21 22 21 19 18 17 17 16 16 16 16 17 16 17 19 22 23 24 26 27 24 24 25 24 24 23 23 24 25 24 24 22 19 18 17 16 20 24 24 22 22 24 22 19 20 20 20 20 20 20 20 19 18 17 17 17 16 13 13 14 15 16 17 18 16 14 14 14 13 11 9 7 5 4 2
5 7 6 5 5 4 3 4 4 2 2 3 5 5 4 2 3 8 12 14 16 19 20 21 22 22 21 19 20 20 19 20 19 19 19 19 21 22 24 25 25 25 24 25 25 24 24 23 22 23 25 25 25 25 22 22 20 17 17 21 25 25 22 23 24 22 21 21 22 23 22 21 21 20 19 19 19 19 17 14 14 16 15 17 20 18 15 14 14 14 13 11 9 7 5 4 3
5 7 6 6 5 5 5 4 5 4 2 3 4 5 6 3 5 12 9 8 11 13 13 15 18 19 20 18 20 22 22 22 22 22 22 22 22 22 24 25 24 25 26 26 26 26 24 22 22 23 24 24 25 26 27 27 27 25 21 18 22 28 27 23 23 24 25 25 25 24 23 22 22 21 21 21 22 20 17 16 16 15 15 20 20 17 15 15 14 14 14 11 10 9 6 5 4
4 5 4 6 5 5 8 6 5 5 2 3 2 6 10 9 13 18 13 12 11 10 10 10 13 15 17 18 20 22 22 22 24 25 25 24 24 23 23 24 25 26 27 27 27 27 25 22 23 23 24 25 25 25 27 28 29 29 27 21 19 25 31 29 27 27 28 28 27 26 24 23 23 23 21 22 22 21 20 18 17 16 16 20 21 19 18 16 14 15 15 12 11 10 7 6 6
5 5 3 4 6 6 8 6 4 5 3 4 2 5 6 9 15 15 12 14 13 12 13 12 13 14 16 19 20 21 21 23 24 24 24 24 24 24 24 25 26 26 27 27 28 27 25 23 23 24 24 24 24 25 26 27 27 27 28 27 23 23 30 34 32 31 30 29 29 29 28 25 25 24 23 24 22 21 21 19 18 19 19 20 21 22 21 17 16 17 16 14 13 10 8 7 7
4 3 3 4 4 3 7 6 5 5 4 5 4 5 6 5 5 9 10 13 11 11 13 12 12 12 13 18 21 22 22 24 24 24 25 24 24 25 24 25 26 26 27 28 28 26 25 25 24 24 24 25 25 25 26 27 27 26 27 30 29 26 30 34 35 35 34 32 30 31 31 28 26 23 23 24 23 22 23 22 19 20 21 20 22 25 23 20 18 18 18 15 13 11 10 9 8
3 3 4 5 4 3 6 4 5 4 3 8 6 4 7 6 3 5 6 9 9 11 12 11 12 11 12 14 18 21 21 23 24 24 25 23 24 25 25 25 26 26 27 28 27 26 26 27 25 24 25 25 27 27 27 27 26 26 28 31 31 28 29 32 34 36 35 33 30 30 30 29 27 25 25 25 25 26 26 24 19 20 21 21 24 27 25 22 19 19 19 15 12 11 11 11 10
4 5 4 5 5 4 5 3 3 2 2 8 10 6 5 2 4 2 4 5 7 9 10 10 11 11 12 13 16 21 21 22 23 23 24 23 23 24 24 25 26 26 26 28 28 27 27 28 26 25 26 26 28 29 28 27 27 27 30 31 29 27 29 30 31 32 32 29 27 28 29 30 28 28 29 27 26 26 25 21 18 21 23 23 27 29 26 23 21 21 20 15 11 10 12 13 12
6 5 4 4 5 4 3 3 4 4 3 7 10 9 10 8 6 6 6 6 7 8 11 13 14 15 15 14 16 23 25 25 24 24 23 22 21 22 23 24 26 26 26 28 29 29 28 28 27 25 26 27 28 30 29 28 28 28 30 30 27 26 29 29 28 28 28 27 26 27 28 30 29 29 29 27 24 25 24 20 19 21 23 26 28 28 27 24 23 22 18 14 12 10 12 14 14
4 5 5 4 5 6 4 2 5 6 5 7 9 10 13 13 14 15 14 13 12 13 16 18 19 19 19 17 19 24 30 30 28 26 24 22 21 21 22 22 24 26 27 28 29 30 29 29 29 26 27 28 29 30 30 29 29 29 29 28 27 27 29 28 27 27 27 26 26 27 27 28 29 28 27 26 26 27 26 23 22 22 23 26 28 28 28 27 25 23 17 13 13 13 14 16 16
2 2 3 4 3 5 2 4 4 3 4 7 10 12 13 12 13 15 16 16 17 18 18 19 19 19 19 20 22 26 32 33 31 28 27 25 24 23 23 22 23 25 27 29 30 31 31 31 30 28 27 28 29 31 31 31 30 30 30 28 28 28 29 28 28 27 27 28 27 27 27 27 28 29 28 28 28 29 27 24 25 24 23 25 28 29 30 29 26 24 19 15 14 16 18 18 17
3 2 4 4 4 3 3 7 3 0 4 8 9 11 15 14 12 13 16 18 20 20 19 20 21 19 19 21 25 30 33 33 31 30 29 29 29 29 28 27 26 26 27 29 31 32 32 32 31 29 28 28 30 31 32 32 31 31 30 29 29 29 29 29 28 27 28 29 29 29 29 28 29 31 31 29 30 31 29 26 26 26 25 27 30 32 32 30 28 24 19 16 14 16 21 21 19
4 4 4 3 5 4 4 6 3 2 2 7 8 11 15 15 13 14 16 17 19 22 21 22 22 20 19 21 25 29 30 30 30 31 31 31 32 32 32 30 29 29 29 30 31 32 32 32 31 30 29 29 30 31 32 32 32 31 29 28 29 29 29 28 28 27 27 27 28 29 31 32 32 32 32 30 31 31 29 27 27 26 27 30 33 33 32 29 28 23 19 18 16 18 22 24 21
4 3 4 3 3 3 2 6 3 2 2 6 8 10 14 16 15 15 18 19 22 26 24 22 20 18 20 21 21 23 24 26 29 32 32 33 33 34 34 32 31 31 31 32 32 32 32 31 31 31 30 31 31 31 32 32 31 30 30 30 29 28 27 27 26 26 25 25 26 27 29 30 31 32 32 30 28 27 28 28 26 24 25 27 28 29 29 27 24 22 20 19 19 21 24 24 21
5 4 4 4 0 2 2 3 3 5 4 6 10 9 12 15 15 15 20 23 25 27 25 22 20 21 24 25 22 21 22 22 24 26 29 31 32 32 34 34 32 31 32 33 33 33 33 31 31 31 32 32 32 32 33 33 32 32 32 31 29 27 25 24 24 24 24 25 26 26 26 26 27 28 28 26 25 25 26 26 24 22 22 23 25 26 25 23 21 21 22 20 21 24 27 25 23
6 6 6 5 3 4 4 2 1 5 5 4 8 9 8 10 11 10 10 12 16 20 20 18 20 24 28 27 25 26 26 25 24 23 23 27 29 28 29 31 31 31 32 32 33 33 32 32 32 33 34 34 33 33 34 34 34 33 32 30 29 27 26 25 25 25 26 28 27 26 25 24 24 23 23 22 22 22 24 23 20 20 22 24 26 26 23 21 19 21 24 24 23 24 25 26 25
6 8 8 9 8 6 4 4 5 4 4 2 3 7 4 3 6 7 4 5 9 12 13 14 18 21 21 23 26 27 26 26 26 23 21 25 28 27 27 27 27 28 29 30 31 32 32 33 34 35 36 35 34 34 34 34 34 32 31 31 30 30 28 28 27 26 27 28 28 26 23 22 22 21 21 23 23 23 23 22 20 20 22 25 26 26 24 22 20 21 24 25 25 25 25 25 24
5 3 3 8 8 5 4 4 4 4 4 1 2 5 6 3 6 10 9 10 13 12 11 14 17 15 14 17 20 19 18 18 20 19 18 22 26 26 27 27 25 24 24 26 29 31 32 34 36 37 37 36 35 35 34 33 33 33 31 31 30 30 29 29 27 26 25 25 26 25 23 24 23 21 22 25 26 25 25 24 22 21 23 25 26 27 26 24 21 21 24 26 25 27 27 24 24
3 1 3 2 4 3 2 3 3 4 7 4 6 5 8 8 7 12 14 14 16 14 11 13 16 14 11 10 10 10 10 13 14 14 13 15 18 19 21 23 23 21 21 24 27 29 31 33 34 34 35 35 36 36 34 32 33 33 31 30 31 30 28 27 25 24 24 24 25 26 25 25 24 24 25 27 28 28 27 25 24 23 25 27 28 29 27 25 23 23 27 28 28 28 26 23 23
0 2 2 2 2 0 1 1 4 3 6 6 6 6 6 8 4 10 14 14 13 12 11 11 11 8 5 5 5 6 7 9 9 8 7 8 10 13 15 17 18 18 20 22 24 25 26 28 29 31 34 35 36 35 32 31 32 32 31 31 32 30 29 27 26 24 24 27 28 28 28 26 24 26 28 29 30 29 27 25 25 24 25 29 30 29 26 25 23 25 27 29 30 29 25 24 23
3 4 4 5 4 3 2 2 4 2 6 7 6 9 5 10 5 6 8 8 9 9 9 7 4 4 4 4 3 4 5 5 5 3 4 5 7 9 11 13 14 16 18 20 21 21 22 25 27 29 32 33 34 32 30 30 31 32 32 32 32 31 30 30 28 26 26 29 30 30 29 26 27 30 31 30 30 28 27 26 26 25 26 30 30 28 27 26 25 26 27 29 30 27 25 26 24
8 7 5 5 3 2 1 2 1 2 7 6 7 12 5 8 5 5 7 5 6 8 6 5 4 6 5 3 2 3 3 3 3 1 1 3 5 6 7 8 9 11 14 16 18 20 22 24 26 27 29 31 32 29 28 30 31 32 33 33 32 32 31 30 28 27 29 31 31 30 28 26 30 33 30 29 29 28 28 28 28 29 29 29 29 28 27 27 27 28 28 28 28 27 27 27 24
6 4 4 3 2 2 2 3 2 4 7 1 4 7 7 7 4 5 6 3 5 5 3 1 2 3 4 4 4 4 2 0 2 2 1 0 2 3 4 5 6 8 10 13 15 18 20 22 24 25 27 29 30 27 26 29 30 32 33 33 32 32 30 28 27 28 29 31 31 29 26 26 30 33 30 28 29 28 28 29 31 31 29 29 28 28 27 27 28 29 28 28 28 28 29 27 24
4 4 6 4 3 4 4 5 4 6 5 2 2 2 5 11 10 6 5 4 6 6 2 3 6 4 3 5 8 8 7 6 3 2 2 2 3 4 5 6 7 9 10 12 14 15 18 20 22 24 26 28 30 27 25 27 30 32 33 33 32 31 30 27 27 27 27 28 28 28 27 27 29 32 31 30 29 28 28 30 31 30 29 29 28 28 28 29 30 30 29 29 30 30 30 27 25
8 7 7 6 5 5 7 6 5 5 3 2 2 1 4 11 9 10 13 12 11 10 6 5 7 11 10 8 11 15 14 13 10 7 6 5 6 7 8 8 8 9 10 11 13 15 17 19 20 22 23 26 27 25 23 26 28 31 32 32 31 31 29 28 27 27 26 26 26 27 27 27 29 31 32 30 29 29 30 32 32 30 30 30 29 29 30 30 31 31 31 32 31 31 30 27 26
10 7 7 7 6 7 7 5 5 5 2 2 3 2 5 6 2 2 6 7 9 12 12 10 12 18 19 16 19 22 23 22 18 14 12 10 9 9 9 9 8 9 10 11 13 14 16 17 18 20 21 23 24 22 22 25 27 30 31 31 31 31 30 29 29 29 28 27 27 26 26 28 30 31 31 30 29 30 31 31 31 32 32 31 30 31 32 31 32 32 33 33 32 31 30 28 27
7 5 6 8 5 6 5 1 1 1 2 2 4 4 6 5 5 5 2 2 6 9 11 12 15 21 23 22 26 29 28 27 23 18 16 16 13 10 10 10 9 9 9 10 11 12 13 15 16 18 19 21 22 20 20 24 27 29 30 30 31 32 31 30 30 31 31 31 29 26 26 28 29 30 31 31 30 30 30 30 31 32 33 32 31 32 33 33 33 33 34 34 33 31 30 29 27
5 5 7 3 2 2 4 2 3 2 5 5 5 7 7 7 12 11 10 9 9 9 8 9 15 23 22 22 29 31 27 23 19 16 16 14 12 10 11 10 8 7 6 6 7 8 10 12 14 16 16 18 20 19 18 22 25 28 30 30 30 31 32 32 32 33 32 31 30 29 28 28 29 31 32 32 32 32 31 30 31 32 34 34 33 33 34 34 34 34 34 33 33 32 31 30 28
3 5 6 3 4 1 3 4 2 3 8 6 6 10 9 7 8 3 7 11 11 10 9 10 14 17 17 25 32 28 22 20 16 14 14 12 12 11 11 10 7 5 3 2 4 5 8 10 12 14 16 18 20 18 17 20 24 27 29 29 29 30 31 33 34 34 32 31 31 31 30 30 31 33 34 33 33 32 30 30 31 34 35 35 34 34 35 35 34 35 34 34 33 32 31 30 28
0 2 2 3 2 5 5 5 5 7 9 6 8 12 10 10 9 4 5 10 10 11 11 11 12 11 16 26 27 20 19 21 18 15 13 12 13 12 12 10 8 6 4 2 2 4 6 8 11 13 15 17 20 19 17 19 23 26 28 28 29 29 31 32 33 33 32 31 31 31 31 32 33 35 35 33 31 30 29 30 32 35 37 36 35 36 36 35 35 35 35 34 34 32 31 29 28
1 3 2 2 3 4 5 6 5 7 8 7 8 10 9 9 10 10 12 12 11 11 10 9 10 14 20 20 16 14 17 19 17 14 12 14 15 14 13 12 10 9 7 5 3 1 3 6 8 11 14 16 20 21 19 20 23 25 26 28 29 29 30 31 32 33 33 31 30 30 30 32 33 36 35 31 29 29 29 30 33 37 37 36 36 37 36 36 35 35 35 35 33 32 30 29 27
6 5 7 5 3 1 3 4 5 5 6 7 7 8 9 8 6 9 12 11 9 8 6 6 10 15 15 11 12 15 17 16 14 12 14 18 17 16 16 15 14 13 11 10 8 4 1 4 7 9 13 15 18 21 21 21 23 24 25 28 30 30 29 30 32 35 34 32 31 29 29 31 32 35 35 31 29 29 29 31 34 37 37 36 37 38 36 36 35 35 35 34 32 31 30 28 27
10 10 10 10 9 5 4 6 4 2 4 6 6 8 10 6 3 6 8 5 3 1 2 5 9 11 9 9 14 16 15 15 12 12 18 20 19 19 18 17 17 15 15 14 10 5 2 4 7 9 12 15 18 21 22 21 22 24 26 27 29 29 30 30 33 35 34 33 32 30 29 29 31 34 35 32 29 28 29 31 34 36 36 37 38 38 36 36 36 35 35 33 32 30 29 28 27
Wind_Direction
140 140 151 159 154 163 205 243 244 181 248 103 98 145 111 74 86 143 144 137 143 94 54 66 51 332 337 350 343 350 13 10 10 12 54 133 151 159 162 161 154 149 153 157 152 149 154 144 136 136 134 137 134 130 131 129 127 122 111 106 103 97 93 86 78 73 69 63 61 59 60 60 58 57 58 56 53 53 54 54 61 75 86 92 90 91 92 88 88 88 92 96 96 97 97 96 94
141 147 158 160 163 200 239 236 256 149 197 121 98 63 103 128 171 153 125 96 74 87 89 94 143 205 302 336 319 300 39 42 46 66 111 147 149 159 167 166 157 150 152 155 149 149 154 149 145 142 142 143 139 138 138 139 135 128 120 113 108 104 98 88 81 74 67 63 61 58 56 53 53 56 60 57 54 58 58 54 62 78 86 90 90 91 93 92 91 89 95 100 100 99 98 97 95
151 157 160 153 184 236 256 235 273 243 192 103 103 93 125 159 151 109 83 78 83 98 100 99 146 177 251 280 316 310 66 71 76 93 121 136 142 157 164 164 155 150 154 155 155 158 156 155 154 146 146 147 147 146 146 147 141 133 127 119 114 108 98 91 84 76 67 62 59 58 54 49 52 58 62 59 58 64 66 62 66 80 86 90 92 93 99 102 101 99 102 104 103 103 101 99 96
162 165 159 164 236 232 243 245 318 304 42 75 105 116 149 150 114 95 86 90 98 109 103 117 150 172 247 288 346 321 94 95 99 110 130 147 163 164 162 163 155 152 158 162 165 165 160 158 159 151 146 148 152 149 149 152 145 138 134 128 123 116 105 98 88 78 68 64 63 61 55 51 55 59 61 58 60 69 74 74 76 82 87 90 90 91 98 101 107 110 105 105 108 107 103 99 94
163 166 163 196 260 253 275 273 297 296 39 32 85 123 149 123 113 105 103 104 107 112 104 155 139 142 235 283 323 327 78 111 136 126 131 162 175 166 166 163 157 159 162 165 169 171 168 162 160 157 147 145 150 151 152 154 151 145 144 140 133 129 118 106 93 78 70 69 67 66 59 54 57 57 59 57 58 70 77 80 82 86 90 90 89 89 92 96 102 105 103 104 107 104 100 97 92
156 169 176 216 268 299 271 234 170 70 51 359 48 117 135 118 124 119 116 113 112 107 110 187 302 247 215 236 258 309 119 134 138 136 135 171 175 166 168 164 160 164 163 166 172 177 175 167 165 161 152 145 146 152 157 160 163 158 156 152 142 137 128 119 104 86 78 75 70 69 64 57 58 55 56 57 57 67 73 75 81 90 93 93 94 94 95 96 99 102 106 105 101 98 96 93 90
150 164 184 204 224 259 262 207 39 71 66 0 43 112 132 125 128 129 134 131 131 140 165 189 304 255 208 165 201 244 206 155 151 169 164 178 177 167 165 165 166 169 167 168 175 180 178 173 170 163 156 148 144 151 157 164 170 170 166 158 148 140 133 127 111 96 87 82 77 73 69 61 60 57 56 58 59 65 71 70 75 90 98 102 108 111 111 111 111 109 108 103 97 94 92 88 86
152 171 209 222 201 230 275 75 45 47 73 52 61 80 109 134 140 142 151 146 147 154 175 195 246 251 161 115 175 203 207 182 182 186 175 173 172 169 166 166 173 175 172 170 180 184 181 180 173 165 161 154 146 145 151 158 166 169 166 156 149 144 136 129 118 106 94 84 79 74 72 64 60 59 57 59 62 66 72 72 71 80 92 103 113 119 118 115 113 104 99 97 92 90 86 83 80
169 224 229 238 228 203 251 103 88 68 100 124 120 87 101 142 153 156 159 144 142 150 161 176 208 260 118 139 117 142 202 206 192 185 178 172 170 174 170 166 174 179 177 173 183 188 186 186 178 170 167 163 154 148 146 148 156 162 162 155 152 148 138 135 131 115 100 83 74 72 71 62 59 59 57 58 62 67 72 76 75 75 80 89 99 108 110 107 105 98 95 93 89 87 83 82 79
202 224 240 243 239 207 199 137 113 98 117 128 135 136 143 154 164 171 167 154 144 154 144 149 200 251 214 163 129 154 203 201 190 187 185 182 173 175 173 167 171 181 182 180 188 192 191 191 184 176 175 172 164 159 151 148 150 158 163 157 156 152 141 142 140 123 112 86 70 77 73 60 59 58 57 59 61 66 72 77 79 80 82 86 92 100 104 103 101 99 97 93 90 87 84 83 81
216 208 255 252 224 225 195 107 113 109 124 141 145 146 158 162 175 181 177 166 148 162 144 166 213 216 233 198 137 188 208 190 189 193 192 193 179 171 172 169 174 183 187 189 193 195 195 197 191 183 181 180 176 171 163 158 157 162 167 161 161 155 148 149 146 138 132 103 86 91 79 62 60 61 59 60 62 66 72 80 83 85 86 90 94 97 99 99 98 97 95 93 91 88 86 85 83
233 193 216 242 234 278 37 37 112 117 137 168 164 152 162 167 179 186 189 183 164 191 177 192 218 196 224 192 153 206 201 187 192 200 197 196 184 172 172 174 180 184 193 198 197 198 197 200 198 193 190 191 187 182 177 171 168 170 169 165 167 161 157 159 156 156 156 147 130 104 85 67 60 63 62 62 66 69 75 82 86 88 90 93 96 97 98 98 97 96 94 93 91 90 89 87 85
255 200 216 246 292 352 23 339 103 125 180 182 162 152 162 172 187 192 187 187 182 196 175 189 209 254 245 126 150 200 193 194 198 203 198 194 191 182 178 179 179 182 196 201 202 202 199 198 200 200 198 199 199 192 189 185 178 177 175 172 175 172 166 165 164 167 169 167 160 127 92 69 63 69 66 65 68 72 80 88 92 95 96 98 100 102 103 102 100 98 97 95 94 93 91 89 87
261 233 242 265 109 280 284 289 124 223 204 142 138 149 164 179 192 194 186 192 184 179 161 187 208 242 247 174 162 180 192 202 201 202 199 199 198 191 188 184 180 183 194 199 202 201 199 199 201 205 203 203 207 206 203 200 194 185 183 182 182 182 176 171 169 174 178 175 176 164 120 77 78 79 72 72 73 76 83 91 98 101 103 104 106 107 106 105 103 101 100 99 98 97 94 92 88
248 271 253 264 222 233 214 249 276 257 152 125 139 153 167 181 184 189 205 208 148 170 191 202 215 219 285 230 138 164 199 206 197 199 200 201 199 196 198 192 189 192 195 200 204 202 199 198 200 207 207 205 208 213 213 210 206 195 192 193 189 191 190 184 181 185 191 191 193 189 182 170 121 101 88 87 84 84 87 93 100 103 104 104 106 106 106 105 104 102 100 100 100 99 97 93 90
211 241 242 243 230 217 189 205 206 247 121 121 145 155 168 180 183 195 211 227 109 189 210 209 216 218 342 28 135 173 204 203 199 201 199 199 199 200 203 199 199 204 204 204 208 208 206 202 200 204 203 206 209 213 216 215 212 207 202 201 197 197 201 198 194 198 199 203 206 203 211 217 191 162 126 112 107 101 97 98 104 105 106 107 109 108 107 107 104 102 101 101 102 101 98 93 90
196 222 240 236 218 210 178 188 182 219 94 119 150 163 174 174 182 209 211 219 232 209 207 210 223 222 249 247 181 197 199 201 206 204 202 200 198 201 203 204 207 211 211 210 212 213 213 209 206 207 205 204 209 213 219 219 218 218 213 209 206 201 205 206 204 209 207 207 210 210 216 223 224 210 188 152 135 128 118 112 113 112 115 116 116 115 112 110 107 106 104 105 106 103 99 93 90
191 221 231 238 224 199 163 195 179 23 91 140 161 175 190 170 170 198 209 216 221 228 216 219 237 232 239 243 226 218 195 202 209 207 208 204 202 204 204 206 208 212 213 214 219 219 218 215 211 214 213 208 210 214 219 222 224 224 217 211 210 207 208 209 208 213 211 208 207 207 209 211 226 225 214 199 171 161 151 138 133 126 128 129 127 122 117 114 111 110 108 109 109 106 101 95 92
214 247 232 245 264 69 48 351 70 34 20 142 160 180 200 171 158 183 205 213 204 221 223 214 232 234 238 240 231 226 206 204 210 212 214 211 211 211 209 208 208 211 214 215 219 221 221 219 217 219 218 212 212 216 219 221 225 224 218 213 211 211 210 210 210 212 214 213 209 205 203 198 213 228 225 219 204 187 179 166 159 150 144 142 140 131 123 119 115 112 112 113 115 112 104 97 94
225 259 237 259 60 68 54 38 65 57 29 147 163 175 197 171 147 176 211 229 208 224 229 208 217 223 230 237 231 228 223 213 213 215 217 218 219 219 218 215 212 212 214 216 218 219 220 220 221 222 220 217 216 219 221 223 227 223 217 217 218 218 214 213 213 215 219 217 212 206 205 204 212 230 235 223 213 206 200 187 175 171 164 158 157 146 133 126 122 117 115 118 121 119 111 105 100
191 231 265 23 31 57 75 71 76 69 56 167 154 165 195 183 166 191 216 238 224 232 235 221 228 223 216 229 234 231 233 232 227 223 222 221 222 224 226 225 222 217 217 218 219 220 220 221 224 225 223 221 220 221 222 223 226 224 219 221 226 226 222 219 218 221 223 219 216 208 207 212 215 227 233 222 215 217 215 199 190 189 184 172 168 164 148 139 134 125 121 122 121 118 113 108 102
203 191 13 30 351 1 80 91 107 84 88 153 154 170 187 170 193 217 221 234 233 249 234 215 238 238 201 225 242 238 238 241 240 238 233 226 224 225 227 230 227 221 224 221 220 224 221 222 226 228 226 224 224 223 224 225 224 221 221 222 227 228 224 221 222 226 227 226 226 214 206 214 220 224 228 226 216 218 225 213 203 197 194 186 179 179 170 160 150 138 133 130 125 120 113 107 98
234 142 85 52 11 31 76 111 160 112 84 158 165 170 164 181 217 223 227 235 241 301 278 214 234 243 224 240 250 246 244 244 245 246 244 237 230 225 224 230 227 222 231 229 227 229 222 224 228 229 230 228 229 226 226 230 225 222 224 224 225 228 230 231 230 231 232 233 233 220 209 214 223 225 228 231 220 215 224 226 216 202 199 197 191 192 188 178 166 155 147 141 136 132 126 116 97
263 153 112 79 37 52 66 103 188 172 330 187 169 219 210 221 228 215 235 240 242 263 264 249 246 248 242 247 252 252 251 249 249 250 248 244 238 229 223 224 226 229 237 234 232 232 225 226 226 225 229 229 231 228 228 233 232 229 229 228 226 227 233 239 238 236 236 235 232 225 217 217 225 227 228 229 220 212 219 226 224 211 206 204 199 199 199 191 180 169 159 151 144 141 141 129 99
258 143 114 104 75 82 83 110 164 165 243 243 222 243 235 232 247 251 250 248 242 249 256 256 256 258 254 248 252 253 252 253 250 248 245 241 236 231 226 221 226 236 241 237 234 233 230 228 224 223 227 227 227 228 229 231 232 232 230 229 228 229 231 233 236 237 238 236 232 229 227 225 226 228 228 226 218 210 217 224 221 218 213 209 204 203 203 197 188 179 171 164 155 152 152 137 104
139 118 121 128 114 102 110 124 126 144 213 212 222 235 230 226 261 261 254 251 243 240 247 255 257 259 259 254 254 254 254 255 251 248 245 241 235 232 233 230 232 240 242 238 238 238 234 231 228 225 227 228 226 225 226 227 226 227 230 231 228 229 229 226 226 231 235 238 237 234 233 233 231 230 230 228 224 220 225 225 220 221 219 215 212 209 207 201 195 188 178 170 158 160 157 121 104
106 123 122 122 127 127 138 144 139 152 151 191 239 245 230 198 232 254 249 239 237 240 245 254 256 255 257 257 256 256 254 254 253 250 246 242 240 236 236 238 238 240 240 239 240 241 238 236 233 229 230 231 229 230 233 233 232 229 231 233 229 226 225 224 225 229 235 242 244 238 236 239 235 232 231 230 232 232 233 230 223 223 226 226 221 215 210 202 199 194 183 173 161 169 167 126 130
123 135 132 132 143 151 172 171 162 186 153 183 256 277 255 199 212 242 240 227 230 234 240 250 255 253 251 252 255 258 256 253 251 249 248 246 247 244 242 243 243 240 240 239 240 241 241 240 238 235 235 235 234 236 238 237 238 236 231 232 231 226 223 225 230 235 240 245 246 239 235 240 237 232 231 233 237 238 236 233 227 229 238 234 222 214 211 202 201 197 187 179 172 175 172 151 164
139 168 179 155 178 188 181 173 169 210 178 150 249 279 253 218 227 241 233 232 233 228 235 243 254 255 251 250 251 257 257 255 253 253 253 252 250 248 245 246 246 243 242 241 241 242 242 241 241 239 237 237 235 234 236 236 236 236 231 227 231 227 223 224 229 235 239 241 241 235 233 240 239 234 234 236 239 240 238 235 232 234 240 233 220 214 213 206 201 195 188 184 180 177 174 175 182
157 195 253 173 203 203 174 165 165 211 173 142 224 270 255 223 228 231 217 229 236 236 245 246 250 253 255 257 257 258 258 255 255 256 257 254 253 251 247 246 246 244 243 242 242 243 243 242 242 241 240 238 236 232 232 233 232 233 231 228 229 228 225 223 226 232 235 236 236 233 234 238 237 234 235 236 234 235 236 233 232 231 231 231 227 223 218 210 201 193 189 187 183 183 186 188 190
171 181 251 215 229 176 152 164 173 202 173 154 216 255 269 270 205 183 202 228 235 242 248 248 249 247 250 262 267 267 265 261 257 256 256 254 254 253 250 247 246 244 243 243 243 243 244 243 243 245 243 239 236 232 230 230 229 230 231 231 231 231 230 227 226 230 234 238 239 236 235 234 234 232 229 229 231 236 235 229 229 229 227 233 234 227 218 207 201 197 194 191 189 191 194 191 192
191 193 214 207 234 152 137 164 186 208 162 169 207 246 258 267 114 139 225 238 230 245 253 252 253 250 248 258 272 275 272 269 262 256 255 253 250 251 250 248 247 245 243 244 243 242 242 244 245 245 244 239 234 232 230 230 230 229 231 234 236 235 235 233 230 233 238 240 240 236 232 229 228 231 228 229 238 242 234 225 228 234 234 240 237 224 214 205 203 203 197 196 201 203 195 192 196
196 226 230 184 213 195 149 157 190 209 145 183 213 252 270 236 117 132 272 259 227 239 253 254 253 255 253 252 267 277 274 272 267 258 256 254 251 249 248 247 247 246 245 245 245 243 242 245 247 246 245 241 235 233 231 232 232 231 233 236 239 237 236 237 235 236 237 234 231 230 230 227 225 230 231 235 244 240 230 228 237 243 241 241 232 218 210 207 207 204 196 197 210 211 197 195 199
193 220 240 201 219 231 186 145 158 187 213 217 218 239 259 263 269 261 262 254 225 232 252 258 260 261 261 255 262 273 273 270 266 262 260 257 254 252 249 246 246 246 245 245 246 245 244 246 248 247 246 243 238 235 232 232 233 232 234 236 238 237 237 240 237 231 226 222 225 230 230 226 224 229 232 236 240 235 234 241 246 244 240 236 227 217 212 210 207 204 200 205 209 207 202 200 199
209 200 222 224 215 237 248 151 149 178 212 240 234 242 253 259 267 266 263 254 238 243 256 260 263 262 262 257 255 265 270 268 263 263 264 259 253 250 248 245 244 244 243 244 246 247 245 246 249 248 246 243 239 237 234 232 232 232 235 237 236 236 238 240 237 229 222 219 223 227 227 224 222 226 232 238 240 237 238 243 241 237 234 229 221 215 213 211 207 203 206 217 208 200 206 205 200
317 203 250 261 227 233 213 109 122 194 232 244 245 256 262 261 262 266 267 265 259 259 259 258 259 258 257 255 253 258 266 267 265 263 262 258 251 248 249 249 247 245 243 242 243 246 246 247 249 250 248 245 241 238 236 232 231 233 235 236 236 236 238 238 235 229 221 220 221 222 223 223 223 226 233 240 243 240 235 237 235 229 228 226 218 215 213 210 206 202 208 221 212 201 204 205 202
327 304 279 266 269 268 119 103 104 216 265 258 255 264 270 269 268 270 272 272 270 265 257 254 253 251 249 251 255 261 266 268 268 265 261 257 254 252 252 252 250 247 244 242 242 244 245 247 249 250 249 247 243 239 238 234 232 235 237 238 237 237 239 238 235 229 223 222 224 224 224 225 227 229 232 239 243 237 229 232 231 224 224 223 218 215 212 207 201 200 210 216 214 210 204 201 201
282 273 276 257 257 264 102 99 132 154 260 270 275 276 274 273 271 271 271 270 268 262 255 251 251 250 249 249 255 263 267 267 268 267 263 259 256 255 255 253 250 248 247 245 244 244 245 246 248 249 249 248 245 241 239 236 234 237 240 240 239 239 239 238 235 233 228 225 225 227 228 229 230 232 236 242 243 233 228 231 227 222 224 221 217 212 208 204 200 203 214 210 208 214 207 202 201
249 248 269 265 262 270 106 98 123 171 240 280 292 287 278 279 276 268 260 257 260 260 256 254 255 255 251 249 251 257 262 263 266 269 267 263 259 257 257 255 252 250 248 247 246 246 246 247 247 248 248 248 247 243 240 238 236 238 240 239 239 239 239 238 236 234 231 226 225 227 229 228 230 234 237 239 236 232 233 229 220 217 220 218 215 210 205 204 206 212 220 215 210 209 204 204 203
234 234 252 250 232 282 243 111 142 194 228 291 297 288 276 275 272 264 254 247 253 259 259 259 257 255 254 254 254 255 256 256 260 266 268 266 263 261 259 258 256 251 248 246 245 245 246 247 247 247 247 247 246 244 241 239 239 239 240 242 242 240 238 236 233 230 226 223 225 226 225 227 232 232 229 226 228 232 228 217 211 215 218 214 210 208 207 209 215 219 218 218 216 209 204 203 203
227 221 238 251 260 265 259 9 319 222 214 277 290 283 268 254 250 260 255 238 244 254 257 258 250 252 258 260 260 261 261 260 258 258 261 266 267 267 264 261 257 253 249 249 248 247 247 247 246 246 246 246 245 244 243 241 241 241 241 242 240 237 234 231 229 226 222 220 222 224 226 230 228 220 214 216 218 216 210 204 209 219 223 219 211 210 216 220 225 226 221 218 215 213 214 211 208
232 214 225 245 266 282 287 342 336 275 230 182 292 297 282 207 227 256 263 235 245 242 236 242 246 250 256 259 266 270 272 272 269 262 255 260 266 268 267 264 260 256 251 250 249 248 247 246 245 244 244 245 244 245 245 243 243 243 242 241 240 238 236 234 231 228 223 219 219 223 225 219 211 208 212 215 209 204 207 213 221 224 223 220 215 217 221 222 225 228 225 218 212 215 221 220 217
250 221 244 251 262 285 296 316 311 287 299 187 188 289 285 258 249 257 260 258 261 253 242 248 252 251 246 252 268 276 277 278 278 274 262 258 263 263 263 264 263 260 254 250 248 246 245 244 243 244 244 245 245 246 246 245 243 242 241 241 241 241 241 239 234 230 224 219 220 223 219 211 212 218 217 213 211 209 213 220 225 224 221 220 221 224 223 219 223 227 225 220 216 218 220 222 222
249 32 350 265 240 249 256 299 270 288 322 268 192 224 271 274 248 236 240 250 259 261 259 258 257 257 249 245 257 262 268 275 276 278 271 260 260 259 258 259 260 259 254 249 247 246 245 245 246 247 248 248 247 247 247 245 244 243 241 239 238 238 239 238 234 229 223 220 223 226 224 222 224 224 215 210 211 210 211 218 221 218 220 224 225 226 221 216 218 223 222 220 222 222 220 222 224
340 58 16 82 103 177 167 277 281 310 322 283 192 179 256 281 241 208 220 232 245 253 255 256 252 248 233 217 242 267 286 289 280 275 271 260 257 256 253 253 253 251 248 246 246 247 247 248 249 249 248 248 247 248 248 244 243 243 241 238 236 234 233 232 229 224 222 222 224 227 230 231 226 216 209 208 210 211 214 220 220 217 220 223 221 219 217 217 221 225 224 220 220 220 217 219 223
134 133 93 85 91 77 98 272 300 317 288 274 192 169 243 289 268 182 194 215 227 239 243 245 215 164 176 207 251 309 332 329 314 285 255 242 242 244 243 246 247 244 244 244 243 243 243 244 245 245 246 248 248 249 247 242 240 240 238 237 235 232 231 229 225 219 220 221 223 227 230 230 223 211 206 208 212 214 218 219 217 216 216 215 214 215 221 226 228 226 223 221 218 214 211 214 218
141 145 121 106 117 106 148 246 310 280 266 262 177 172 206 289 282 162 171 203 227 226 194 169 152 146 172 211 242 302 336 10 23 35 218 218 219 224 230 240 245 243 243 244 242 239 237 239 242 244 246 248 250 248 243 238 237 237 236 236 235 234 231 228 223 218 218 220 224 228 228 225 218 208 206 212 214 216 221 220 215 211 211 214 218 224 229 229 225 221 219 219 216 209 207 212 214
156 158 157 163 171 175 208 200 169 236 251 264 140 177 201 247 262 156 164 202 256 247 164 164 260 173 175 222 248 257 252 271 72 81 60 170 204 209 216 230 239 243 244 243 242 239 238 240 242 244 246 248 250 245 238 235 235 234 234 234 234 233 230 227 223 221 221 224 227 226 222 218 214 210 214 219 217 217 223 221 212 207 211 217 222 226 227 223 219 218 218 216 211 206 207 211 210
197 187 175 203 220 203 219 206 193 228 232 96 97 195 223 243 255 241 230 246 249 256 293 296 283 269 231 249 262 263 251 242 234 226 269 277 273 259 237 237 243 249 251 248 247 244 242 243 243 245 246 248 250 246 238 236 235 233 233 233 232 230 229 228 225 224 226 226 225 224 221 220 219 219 221 224 222 220 220 218 213 210 215 218 219 221 220 218 218 217 216 213 208 206 208 211 211
196 192 181 201 215 222 232 217 215 234 218 97 107 122 251 260 268 254 245 237 230 247 266 264 269 270 264 257 266 273 265 253 244 243 254 267 284 282 261 252 251 254 258 256 254 251 248 249 248 249 250 251 255 253 244 239 237 235 234 233 232 230 229 226 224 224 224 222 222 226 229 228 229 227 224 227 229 223 218 217 215 215 216 215 216 219 218 216 217 216 213 210 208 207 209 211 212
200 203 198 212 219 232 241 233 242 245 214 133 148 160 238 254 337 290 259 258 251 263 267 259 263 266 265 265 270 275 271 263 254 249 255 265 276 279 262 251 248 253 260 261 261 259 257 257 257 258 257 255 258 257 247 241 238 236 235 233 231 230 227 224 223 223 222 223 227 231 232 231 230 227 226 228 227 221 217 217 217 217 216 214 215 217 216 215 214 212 209 208 208 208 209 211 212
202 202 215 230 234 241 255 285 318 305 323 214 190 228 247 256 297 277 250 285 251 246 251 250 256 261 263 265 268 270 268 264 261 264 271 266 260 259 249 243 241 246 257 262 266 267 265 265 265 265 263 260 261 261 251 242 238 236 235 234 232 229 226 222 222 225 226 228 231 231 230 229 229 229 229 227 222 218 217 219 221 220 218 216 215 215 214 213 211 209 208 207 208 208 209 212 213
181 187 208 219 26 272 252 227 93 74 276 252 214 250 268 280 284 260 212 214 225 223 230 237 250 258 260 260 263 264 261 260 264 278 282 261 237 235 234 229 228 233 247 262 273 278 275 273 272 271 270 267 266 268 259 247 240 236 235 235 234 230 226 222 223 227 229 229 229 227 226 228 231 232 230 226 221 219 219 223 225 223 221 218 215 214 212 209 208 209 208 208 208 209 210 212 213
156 195 191 113 45 330 252 247 224 225 252 255 231 249 262 264 276 260 180 208 227 231 232 234 241 249 254 257 260 258 255 260 268 279 276 246 215 213 214 207 205 206 217 259 290 302 297 293 289 284 282 277 274 274 266 253 243 238 237 236 235 232 226 223 225 227 228 229 226 223 224 230 233 232 228 225 223 222 223 228 229 225 222 219 215 213 211 209 209 210 209 209 210 210 211 212 212
31 295 168 136 228 220 205 224 235 237 246 255 248 251 255 244 248 261 212 216 226 229 228 232 234 233 243 253 256 254 255 261 266 270 262 226 201 199 196 190 187 186 184 203 276 316 316 311 304 295 289 283 279 276 266 254 246 240 238 237 235 234 229 226 225 224 224 227 225 222 226 233 237 233 227 223 224 226 230 234 233 227 220 217 215 213 210 210 211 212 211 211 211 212 212 212 210
19 315 221 193 251 228 209 209 212 232 241 249 258 257 252 243 246 257 252 242 242 239 231 229 230 233 240 247 251 258 264 264 264 263 239 204 192 190 188 186 182 179 177 178 186 277 323 312 304 295 290 282 278 276 267 255 248 242 239 237 235 233 231 228 223 220 222 224 222 223 230 236 237 233 226 222 225 231 235 237 234 226 219 216 215 212 211 212 213 214 214 213 212 212 212 211 210
175 217 212 199 200 243 274 239 215 233 243 246 259 262 263 259 247 252 257 254 250 247 241 235 236 239 243 251 259 265 271 272 268 249 214 193 189 189 187 188 186 183 182 180 178 174 212 307 300 290 284 277 273 273 269 257 248 243 239 237 235 233 232 229 222 218 221 223 222 226 233 235 234 231 225 222 227 232 236 238 233 224 219 217 215 212 213 214 215 216 215 214 214 212 211 211 210
186 199 205 205 197 187 230 229 207 212 245 253 263 270 273 269 222 244 256 249 235 221 247 251 252 257 264 268 267 267 269 272 266 228 203 192 190 192 191 194 193 192 195 192 186 184 217 299 300 292 285 277 270 269 270 263 251 243 240 238 236 235 233 228 221 218 219 222 223 227 232 233 231 229 225 223 228 234 237 237 232 224 221 219 216 215 215 216 217 217 216 214 213 212 211 210 209